Location: Im Fang
(46.6019°N, 7.2397°E)
Time: 21:30:43
(UTC+00:00)

Cosmos 614 Rocket - Pass Details

Date: 08 December 2019
Orbit: 733 x 764 km, 74.1° (Epoch: 22 January)

Event Time Altitude Azimuth Distance (km) Brightness Sun altitude
Exits shadow 04:23:16 65° 187° (S) 811 4.0 -26.3°
Drops below altitude 10° 04:27:39 10° 165° (SSE) 2,245 6.6 -25.5°
Sets 04:30:00 0° 164° (SSE) 3,168 7.5 -25.1°
